Cleveland Burke, OH

7:28 PM EDT on March 29, 2017 (GMT -0400)
Burke Lakefront

Weather History for KBKL - January, 2000

Change the Weather History Date:

Wednesday, January 26, 2000

  Actual Average Record
Temperature  
Mean Temperature 20 °F -  
Max Temperature 24 °F 33 °F 53 °F (2002)
Min Temperature 15 °F 21 °F 7 °F (2014)
Degree Days  
Heating Degree Days 46    
Moisture  
Dew Point 16 °F    
Average Humidity 88    
Maximum Humidity 100    
Minimum Humidity 78    
Precipitation  
Precipitation 0.00 in - - ()
Sea Level Pressure  
Sea Level Pressure 30.07 in    
Wind  
Wind Speed 20 mph (NW)    
Max Wind Speed 26 mph    
Max Gust Speed 33 mph    
Visibility 3 miles    
Events Fog , Snow    
Averages and records for this station are not official NWS values.
T = Trace of Precipitation, MM = Missing Value Source: NWS Daily Summary

Daily Weather History Graph

Daily Weather History Graph

Search for Another Location

Airport or City:

Trip Planner

Search our weather history database for the weather conditions in past years. The results will help you decide how hot, cold, wet, or windy it might be!

Date:

Astronomy

Jan. 26, 2000 Rise Set
Actual Time 7:44 AM EST 5:34 PM EST
Civil Twilight 7:14 AM EST 6:04 PM EST
Nautical Twilight 6:41 AM EST 6:37 PM EST
Astronomical Twilight 6:08 AM EST 7:10 PM EST
Moon 11:54 PM EST (1/26) 11:07 AM EST (1/26)
Length of Visible Light 10h 49m
Length of Day
9h 49m
Waning Gibbous, 66% of the Moon is Illuminated
Jan 26
Waning Gibbous
Jan 28
Last Quarter
Feb 5
New
Feb 12
First Quarter
Feb 19
Full

Hourly Weather History & Observations

Time (EST) Temp. Windchill Dew Point Humidity Pressure Visibility Wind Dir Wind Speed Gust Speed Precip Events Conditions
12:07 AM 24.8 °F 9.6 °F 21.2 °F 86% 29.83 in 2.5 mi NW 23.0 mph - 0.00 in Snow Light Snow
12:16 AM 23.0 °F 8.0 °F 21.2 °F 93% 29.83 in 1.0 mi NW 20.7 mph - 0.00 in Snow Light Snow
12:19 AM 23.0 °F 6.9 °F 21.2 °F 93% 29.83 in 0.8 mi NW 24.2 mph 28.8 mph 0.00 in Snow Light Snow
12:32 AM 23.0 °F 7.6 °F 21.2 °F 93% 29.83 in 1.0 mi NW 21.9 mph 28.8 mph 0.00 in Snow Light Snow
12:45 AM 21.2 °F 3.9 °F 21.2 °F 100% 29.83 in 1.2 mi NW 26.5 mph 29.9 mph 0.00 in Snow Light Snow
12:53 AM 21.9 °F 5.8 °F 21.0 °F 96% 29.86 in 1.2 mi NW 23.0 mph - 0.00 in Snow Light Snow
1:09 AM 21.2 °F 4.2 °F 19.4 °F 93% 29.84 in 4.0 mi NW 25.3 mph 33.4 mph 0.00 in Snow Light Snow
1:20 AM 21.2 °F 3.9 °F 19.4 °F 93% 29.84 in 4.0 mi NW 26.5 mph 31.1 mph 0.00 in Snow Light Snow
1:27 AM 21.2 °F 4.5 °F 19.4 °F 93% 29.84 in 4.0 mi NW 24.2 mph - 0.00 in Snow Light Snow
1:53 AM 21.9 °F 4.8 °F 19.0 °F 89% 29.88 in 7.0 mi NW 26.5 mph 31.1 mph 0.00 in Snow Light Snow
2:02 AM 21.2 °F 3.9 °F 19.4 °F 93% 29.85 in 7.0 mi NW 26.5 mph 31.1 mph 0.00 in Snow Light Snow
7:53 AM 19.9 °F 4.3 °F 18.0 °F 92% 30.00 in 3.0 mi NW 19.6 mph - 0.00 in Snow Light Snow
8:34 AM 19.4 °F 4.1 °F 17.6 °F 93% 29.98 in 3.0 mi NW 18.4 mph - 0.00 in Snow Light Snow
8:53 AM 19.9 °F 5.2 °F 17.1 °F 89% 30.03 in 7.0 mi NW 17.3 mph - 0.00 in   Overcast
9:15 AM 19.4 °F 4.1 °F 17.6 °F 93% 30.01 in 10.0 mi NW 18.4 mph - N/A   Overcast
9:53 AM 19.9 °F 6.2 °F 17.1 °F 89% 30.05 in 10.0 mi NNW 15.0 mph - N/A   Overcast
10:32 AM 19.4 °F 5.0 °F 17.6 °F 93% 30.04 in 2.0 mi NNW 16.1 mph - 0.00 in Snow Light Snow
10:39 AM 19.4 °F 5.5 °F 17.6 °F 93% 30.05 in 3.0 mi NNW 15.0 mph - 0.00 in Snow Light Snow
10:53 AM 19.9 °F 6.2 °F 16.0 °F 85% 30.08 in 3.0 mi NW 15.0 mph - 0.00 in Snow Light Snow
11:19 AM 19.4 °F 5.5 °F 17.6 °F 93% 30.06 in 3.0 mi NW 15.0 mph - 0.00 in Snow Light Snow
11:22 AM 19.4 °F 5.5 °F 17.6 °F 93% 30.06 in 1.8 mi NW 15.0 mph - 0.00 in Snow Light Snow
11:31 AM 19.4 °F 6.6 °F 15.8 °F 86% 30.06 in 1.5 mi NW 12.7 mph - 0.00 in Snow Light Snow
11:53 AM 19.9 °F 6.7 °F 17.1 °F 89% 30.09 in 0.5 mi NW 13.8 mph - 0.00 in Fog , Snow Snow
12:02 PM 19.4 °F 5.5 °F 17.6 °F 93% 30.06 in 0.8 mi NW 15.0 mph - 0.00 in Snow Light Snow
12:05 PM 19.4 °F 6.0 °F 17.6 °F 93% 30.06 in 1.0 mi NW 13.8 mph - 0.00 in Snow Light Snow
12:53 PM 19.9 °F 6.2 °F 17.1 °F 89% 30.09 in 1.0 mi NW 15.0 mph - 0.00 in Snow Light Snow
1:11 PM 19.4 °F 5.0 °F 17.6 °F 93% 30.06 in 0.8 mi WNW 16.1 mph - 0.00 in Snow Light Snow
1:34 PM 19.4 °F 5.5 °F 15.8 °F 86% 30.06 in 1.2 mi WNW 15.0 mph - 0.00 in Snow Light Snow
1:42 PM 19.4 °F 5.5 °F 15.8 °F 86% 30.06 in 2.0 mi WNW 15.0 mph - 0.00 in Snow Light Snow
1:53 PM 19.0 °F 4.5 °F 14.0 °F 81% 30.09 in 2.0 mi NW 16.1 mph - 0.00 in Snow Light Snow
2:03 PM 19.4 °F 6.0 °F 15.8 °F 86% 30.07 in 1.2 mi NW 13.8 mph - 0.00 in Snow Light Snow
2:19 PM 19.4 °F 6.0 °F 14.0 °F 80% 30.07 in 3.0 mi NW 13.8 mph - 0.00 in Snow Light Snow
2:37 PM 19.4 °F 5.5 °F 14.0 °F 80% 30.08 in 1.8 mi NW 15.0 mph - 0.00 in Snow Light Snow
2:46 PM 17.6 °F 3.2 °F 14.0 °F 86% 30.08 in 1.2 mi NW 15.0 mph - 0.00 in Snow Light Snow
2:53 PM 19.0 °F 6.1 °F 14.0 °F 81% 30.12 in 5.0 mi NW 12.7 mph - 0.00 in Snow Light Snow
3:02 PM 19.4 °F 5.5 °F 15.8 °F 86% 30.09 in 1.0 mi WNW 15.0 mph - 0.00 in Snow Light Snow
3:53 PM 18.0 °F 2.6 °F 12.0 °F 78% 30.14 in 3.0 mi NW 17.3 mph - 0.00 in   Haze
4:34 PM 17.6 °F 1.7 °F 12.2 °F 79% 30.12 in 8.0 mi NNW 18.4 mph - 0.00 in Snow Light Snow
4:38 PM 17.6 °F 1.7 °F 14.0 °F 86% 30.12 in 2.5 mi NW 18.4 mph - 0.00 in Snow Light Snow
4:53 PM 18.0 °F 2.6 °F 14.0 °F 84% 30.16 in 1.2 mi NNW 17.3 mph - 0.00 in Snow Light Snow
5:00 PM 17.6 °F 2.7 °F 12.2 °F 79% 30.13 in 3.0 mi NNW 16.1 mph - 0.00 in Snow Light Snow
5:30 PM 17.6 °F 2.2 °F 15.8 °F 93% 30.14 in 1.8 mi NW 17.3 mph - 0.00 in Snow Light Snow
5:53 PM 18.0 °F 2.2 °F 15.1 °F 88% 30.18 in 1.5 mi NW 18.4 mph - 0.00 in Snow Light Snow
6:53 PM 18.0 °F 1.7 °F 12.9 °F 81% 30.21 in 2.5 mi NW 19.6 mph - 0.00 in Snow Light Snow
7:53 PM 18.0 °F 1.7 °F 12.9 °F 81% 30.23 in 2.5 mi NW 19.6 mph - 0.00 in Snow Light Snow
8:08 PM 17.6 °F 2.2 °F 12.2 °F 79% 30.20 in 3.0 mi NNW 17.3 mph 26.5 mph 0.00 in Snow Light Snow
8:53 PM 17.1 °F 0.6 °F 14.0 °F 88% 30.25 in 3.0 mi NW 19.6 mph - 0.00 in Snow Light Snow
9:53 PM 16.0 °F -1.3 °F 12.9 °F 88% 30.26 in 1.8 mi NW 20.7 mph - 0.00 in Snow Light Snow
10:00 PM 15.8 °F -0.6 °F 12.2 °F 86% 30.23 in 2.0 mi NNW 18.4 mph - 0.00 in Snow Light Snow
10:09 PM 17.6 °F 1.3 °F 12.2 °F 79% 30.23 in 4.0 mi NW 19.6 mph - 0.00 in Snow Light Snow
10:42 PM 15.8 °F -1.1 °F 12.2 °F 86% 30.23 in 1.8 mi NW 19.6 mph - 0.00 in Snow Light Snow
10:53 PM 16.0 °F -0.4 °F 12.9 °F 88% 30.27 in 3.0 mi NW 18.4 mph - 0.00 in Snow Light Snow
11:09 PM 15.8 °F -1.1 °F 12.2 °F 86% 30.24 in 1.8 mi NW 19.6 mph - 0.00 in Snow Light Snow
11:18 PM 15.8 °F -0.2 °F 12.2 °F 86% 30.24 in 2.0 mi NW 17.3 mph - 0.00 in Snow Light Snow
11:33 PM 15.8 °F 0.3 °F 12.2 °F 86% 30.24 in 1.2 mi NW 16.1 mph - 0.00 in Snow Light Snow
11:41 PM 15.8 °F 0.9 °F 12.2 °F 86% 30.24 in 1.0 mi NW 15.0 mph - 0.00 in Snow Light Snow
11:53 PM 16.0 °F 1.1 °F 14.0 °F 92% 30.27 in 1.2 mi NW 15.0 mph - 0.00 in Snow Light Snow
11:59 PM 15.8 °F 0.3 °F 12.2 °F 86% 30.24 in 2.0 mi NNW 16.1 mph - 0.00 in Snow Light Snow